Date String (YYYY-MM-DD hh:mm:ss) UTC,Instrument flags,Ambient pressure (hPa),Sample flow (lpm),Bypass flow (lpm),Sample temperature (°C),Ambient temperature (°C),ASC tube jacket temperature (°C),LED temperature (°C),Box temperature (°C),Sample RH (%),Span deviation,Mass concentration (μg/m³),Mass concentration (μg/m³),Mass concentration (μg/m³)
DateTimeUTC,F1_M11,P_M11,Q1_M11,Q2_M11,T1_M11,T2_M11,T3_M11,T4_M11,T5_M11,U1_M11,ZSPAN_M11,X0_M11,X2_M11,X1_M11
2021-09-15 10:00:00,,0826.5,5.00,0.00,29.4,28.7,00.0,38.6,31.1,20.4,0001.3,0012.06,0008.09,0007.38
2021-09-15 10:01:00,,0826.5,4.99,0.00,29.4,28.7,00.0,38.6,31.1,20.5,0001.2,0011.99,0008.10,0007.39
2021-09-15 10:02:00,,0826.5,5.00,0.00,29.4,28.7,00.0,38.6,31.1,22.2,0001.3,0012.55,0008.12,0007.41
2021-09-15 10:03:00,,0826.5,5.01,0.00,29.4,28.7,00.0,38.6,31.1,21.6,0001.5,0012.83,0008.11,0007.40
2021-09-15 10:04:00,,0826.5,5.00,0.00,29.4,28.7,00.0,38.6,31.2,20.7,0001.8,0012.70,0008.12,0007.40
2021-09-15 10:05:00,,0826.7,4.99,0.00,29.4,28.8,00.0,38.6,31.2,20.4,0002.0,0012.62,0008.13,0007.39
2021-09-15 10:06:00,,0826.6,5.00,0.00,29.4,28.8,00.0,38.6,31.2,20.3,0002.2,0012.57,0008.11,0007.41
2021-09-15 10:07:00,,0826.6,5.00,0.00,29.4,28.7,00.0,38.6,31.2,20.2,0002.2,0012.46,0008.07,0007.42
2021-09-15 10:08:00,,0826.7,5.01,0.00,29.5,28.7,00.0,38.6,31.2,19.8,0002.1,0012.47,0008.09,0007.44
2021-09-15 10:09:00,,0826.7,4.99,0.00,29.5,28.7,00.0,38.6,31.2,20.0,0002.3,0012.55,0008.13,0007.47
2021-09-15 10:10:00,,0826.7,5.00,0.00,29.5,28.7,00.0,38.6,31.2,20.9,0002.7,0013.02,0008.11,0007.47
2021-09-15 10:11:00,,0826.7,5.00,0.00,29.5,28.7,00.0,38.6,31.2,19.7,0002.7,0013.54,0008.12,0007.49
2021-09-15 10:12:00,,0826.7,5.01,0.00,29.4,28.7,00.0,38.6,31.2,19.5,0002.5,0014.18,0008.13,0007.52
2021-09-15 10:13:00,,0826.7,4.99,0.00,29.4,28.7,00.0,38.6,31.1,19.1,0002.7,0013.71,0008.15,0007.55
2021-09-15 10:14:00,,0826.7,4.99,0.00,29.4,28.7,00.0,38.6,31.2,19.6,0002.8,0013.47,0008.21,0007.58
2021-09-15 10:15:00,,0826.6,5.02,0.00,29.4,28.7,00.0,38.6,31.2,19.8,0002.7,0013.45,0008.21,0007.60
2021-09-15 10:16:00,,0826.7,4.99,0.00,29.5,28.7,00.0,38.6,31.2,19.3,0002.8,0013.53,0008.21,0007.62
2021-09-15 10:17:00,,0826.7,5.01,0.00,29.5,28.7,00.0,38.6,31.2,20.4,0003.0,0014.22,0008.21,0007.61
2021-09-15 10:18:00,,0826.7,5.01,0.00,29.5,28.8,00.0,38.6,31.2,20.5,0002.9,0014.34,0008.21,0007.59
2021-09-15 10:19:00,,0826.7,5.00,0.00,29.5,28.8,00.0,38.6,31.2,19.5,0002.9,0014.36,0008.22,0007.59
2021-09-15 10:20:00,,0826.7,5.00,0.00,29.5,28.8,00.0,38.6,31.2,19.6,0002.9,0014.19,0008.16,0007.56
2021-09-15 10:21:00,,0826.7,5.02,0.00,29.5,28.8,00.0,38.6,31.2,20.9,0002.8,0014.11,0008.16,0007.56
2021-09-15 10:22:00,,0826.7,4.99,0.00,29.5,28.8,00.0,38.6,31.2,20.9,0002.8,0013.72,0008.18,0007.54
2021-09-15 10:23:00,,0826.7,4.99,0.00,29.5,28.8,00.0,38.6,31.2,21.2,0003.0,0013.17,0008.19,0007.52
2021-09-15 10:24:00,,0826.7,5.00,0.00,29.5,28.7,00.0,38.6,31.2,21.0,0003.1,0013.17,0008.19,0007.48
2021-09-15 10:25:00,,0826.6,4.99,0.00,29.5,28.8,00.0,38.6,31.2,19.4,0002.7,0013.26,0008.21,0007.48
2021-09-15 10:26:00,,0826.7,5.01,0.00,29.4,28.7,00.0,38.6,31.2,20.9,0002.6,0013.13,0008.15,0007.47
2021-09-15 10:27:00,,0826.7,5.01,0.00,29.4,28.7,00.0,38.6,31.2,20.9,0002.5,0013.01,0008.15,0007.44
2021-09-15 10:28:00,,0826.7,5.01,0.00,29.4,28.7,00.0,38.6,31.1,19.6,0002.3,0012.43,0008.17,0007.46
2021-09-15 10:29:00,,0826.7,5.00,0.00,29.4,28.6,00.0,38.6,31.1,18.3,0002.2,0012.32,0008.22,0007.50
2021-09-15 10:30:00,,0826.7,4.99,0.00,29.4,28.6,00.0,38.6,31.1,17.7,0002.2,0012.30,0008.24,0007.54
2021-09-15 10:31:00,,0826.7,5.00,0.00,29.3,28.6,00.0,38.6,31.0,18.1,0002.5,0013.15,0008.25,0007.57
2021-09-15 10:32:00,,0826.7,5.01,0.00,29.3,28.5,00.0,38.6,31.0,17.9,0002.3,0013.25,0008.28,0007.61
2021-09-15 10:33:00,,0826.6,4.99,0.00,29.3,28.5,00.0,38.6,31.0,16.9,0002.5,0013.20,0008.33,0007.68
2021-09-15 10:34:00,,0826.6,4.99,0.00,29.3,28.5,00.0,38.6,31.0,17.5,0002.4,0013.14,0008.34,0007.72
2021-09-15 10:35:00,,0826.6,5.00,0.00,29.3,28.5,00.0,38.5,31.0,16.9,0002.4,0013.03,0008.34,0007.77
2021-09-15 10:36:00,,0826.6,5.00,0.00,29.3,28.5,00.0,38.5,30.9,17.1,0002.6,0013.19,0008.34,0007.81
2021-09-15 10:37:00,,0826.5,5.00,0.00,29.2,28.5,00.0,38.5,30.9,16.6,0002.5,0013.24,0008.39,0007.86
2021-09-15 10:38:00,,0826.5,5.01,0.00,29.2,28.4,00.0,38.5,30.9,17.2,0002.5,0013.24,0008.40,0007.92
2021-09-15 10:39:00,,0826.5,5.01,0.00,29.2,28.4,00.0,38.5,30.9,18.3,0002.6,0013.26,0008.41,0007.95
2021-09-15 10:40:00,,0826.6,5.00,0.00,29.2,28.4,00.0,38.5,30.9,19.3,0002.7,0013.22,0008.39,0007.93
2021-09-15 10:41:00,,0826.6,5.01,0.00,29.2,28.4,00.0,38.5,30.9,21.3,0002.8,0013.73,0008.37,0007.87
2021-09-15 10:42:00,,0826.6,4.99,0.00,29.2,28.4,00.0,38.4,30.9,21.1,0002.8,0013.30,0008.34,0007.84
2021-09-15 10:43:00,,0826.7,4.98,0.00,29.1,28.4,00.0,38.4,30.8,20.8,0003.0,0012.51,0008.31,0007.82
2021-09-15 10:44:00,,0826.7,5.00,0.00,29.1,28.4,00.0,38.4,30.8,20.5,0002.9,0012.47,0008.27,0007.77
2021-09-15 10:45:00,,0826.7,5.00,0.00,29.1,28.4,00.0,38.4,30.9,19.2,0002.8,0012.53,0008.26,0007.74
2021-09-15 10:46:00,,0826.7,5.01,0.00,29.1,28.4,00.0,38.4,30.9,18.6,0002.6,0012.68,0008.30,0007.74
2021-09-15 10:47:00,,0826.7,5.01,0.00,29.2,28.4,00.0,38.4,30.9,18.9,0002.5,0013.07,0008.31,0007.73
2021-09-15 10:48:00,,0826.6,5.00,0.00,29.2,28.4,00.0,38.4,30.9,18.7,0002.6,0013.10,0008.31,0007.72
2021-09-15 10:49:00,,0826.7,4.99,0.00,29.2,28.5,00.0,38.4,31.0,18.6,0002.6,0013.54,0008.30,0007.71
2021-09-15 10:50:00,,0826.6,5.00,0.00,29.2,28.5,00.0,38.4,31.0,18.9,0002.5,0013.52,0008.29,0007.70
2021-09-15 10:51:00,,0826.7,5.01,0.00,29.2,28.5,00.0,38.4,31.0,19.4,0002.2,0013.55,0008.31,0007.71
2021-09-15 10:52:00,,0826.6,4.99,0.00,29.2,28.5,00.0,38.4,31.0,19.3,0002.1,0013.14,0008.33,0007.73
2021-09-15 10:53:00,,0826.7,5.01,0.00,29.2,28.5,00.0,38.4,31.0,18.6,0001.7,0012.93,0008.35,0007.76
2021-09-15 10:54:00,,0826.7,4.99,0.00,29.3,28.5,00.0,38.4,31.0,19.0,0001.7,0013.21,0008.40,0007.80
2021-09-15 10:55:00,,0826.7,5.01,0.00,29.3,28.5,00.0,38.4,31.0,19.1,0001.6,0013.26,0008.40,0007.82
2021-09-15 10:56:00,,0826.7,5.01,0.00,29.3,28.6,00.0,38.4,31.0,19.2,0001.7,0013.19,0008.39,0007.83
2021-09-15 10:57:00,,0826.7,5.01,0.00,29.3,28.6,00.0,38.4,31.1,20.4,0002.0,0013.16,0008.38,0007.83
2021-09-15 10:58:00,,0826.7,5.01,0.00,29.3,28.6,00.0,38.4,31.1,21.3,0001.9,0012.69,0008.37,0007.80
2021-09-15 10:59:00,,0826.7,5.00,0.00,29.3,28.6,00.0,38.4,31.1,22.5,0002.0,0012.88,0008.35,0007.75
